This demonstration page uses our WeatherBlox Daily Observations layout. Learn more.

Left ArrowRight Arrow

39.51506, -84.39828

Hourly Observations for February 26, 2019

Temp ( °F °C ) Dew Point ( °F °C ) Humidity (%) Winds ( mph kmh ) Pressure ( in mb ) Visibility ( mi km ) Precip ( " mm )
12:15 am 00:15 Cloudy 28 -2 19 -7.5 66 66 Calm 30.46 1032 10 16 0.00 0.00
12:35 am 00:35 Cloudy 28 -2 18 -7.7 65 65 Calm 30.46 1032 10 16 0.00 0.00
12:55 am 00:55 Cloudy 28 -2.3 20 -6.9 71 71 Calm 30.46 1032 10 16 0.00 0.00
1:15 am 01:15 Cloudy 28 -2.3 19 -7 70 70 Calm 30.46 1032 10 16 0.00 0.00
1:35 am 01:35 Cloudy 27 -2.6 19 -7 72 72 N 3 6 30.46 1032 10 16 0.00 0.00
1:55 am 01:55 Cloudy 28 -2.5 20 -6.9 72 72 Calm 30.46 1032 10 16 0.00 0.00
2:15 am 02:15 Cloudy 28 -2.2 19 -7.1 69 69 Calm 30.46 1032 10 16 0.00 0.00
2:35 am 02:35 Cloudy 27 -2.6 20 -6.9 73 73 Calm 30.46 1032 10 16 0.00 0.00
2:55 am 02:55 Cloudy 27 -2.6 18 -7.7 68 68 Calm 30.46 1032 10 16 0.00 0.00
3:15 am 03:15 Mostly Cloudy 27 -2.8 19 -7.5 70 70 N 3 6 30.45 1031 10 16 0.00 0.00
3:35 am 03:35 Clear 26 -3.1 19 -7.5 72 72 N 3 6 30.45 1031 10 16 0.00 0.00
3:55 am 03:55 Partly Cloudy 26 -3.2 18 -7.9 70 70 N 3 6 30.45 1031 10 16 0.00 0.00
4:15 am 04:15 Clear 26 -3.5 18 -8 71 71 N 6 9 30.46 1031 10 16 0.00 0.00
4:35 am 04:35 Clear 25 -3.8 17 -8.1 72 72 N 3 6 30.46 1031 10 16 0.00 0.00
4:55 am 04:55 Clear 25 -3.7 18 -8 72 72 N 5 7 30.46 1031 10 16 0.00 0.00
5:15 am 05:15 Clear 26 -3.6 17 -8.5 69 69 N 3 6 30.46 1031 10 16 0.00 0.00
5:35 am 05:35 Clear 26 -3.4 16 -8.9 66 66 NNE 3 6 30.47 1032 10 16 0.00 0.00
5:55 am 05:55 Clear 26 -3.4 17 -8.6 68 68 Calm 30.48 1032 10 16 0.00 0.00
6:15 am 06:15 Clear 26 -3.3 17 -8.5 68 68 Calm 30.48 1032 10 16 0.00 0.00
6:35 am 06:35 Clear 25 -3.8 18 -7.8 74 74 Calm 30.49 1032 10 16 0.00 0.00
6:55 am 06:55 Clear 25 -3.9 19 -7.3 78 78 NNE 3 6 30.49 1032 10 16 0.00 0.00
7:15 am 07:15 Sunny 24 -4.4 18 -7.7 78 78 Calm 30.49 1032 10 16 0.00 0.00
7:35 am 07:35 Sunny 25 -4 18 -7.9 75 75 Calm 30.49 1032 10 16 0.00 0.00
7:55 am 07:55 Sunny 25 -3.8 19 -7.2 78 78 Calm 30.50 1033 10 16 0.00 0.00
8:15 am 08:15 Sunny 26 -3.3 19 -7 76 76 Calm 30.49 1033 10 16 0.00 0.00
8:35 am 08:35 Sunny 27 -2.6 19 -7 72 72 Calm 30.49 1033 10 16 0.00 0.00
8:55 am 08:55 Sunny 29 -1.7 19 -7.5 65 65 NE 3 6 30.49 1033 10 16 0.00 0.00
9:15 am 09:15 Sunny 30 -1.2 18 -7.8 61 61 ENE 3 6 30.49 1032 10 16 0.00 0.00
9:35 am 09:35 Sunny 31 -0.4 19 -7.5 59 59 ENE 6 9 30.49 1032 10 16 0.00 0.00
9:55 am 09:55 Sunny 32 0.2 17 -8.1 54 54 NE 7 11 30.49 1032 10 16 0.00 0.00
10:15 am 10:15 Sunny 34 0.9 16 -9 48 48 NNE 7 11 30.48 1032 10 16 0.00 0.00
10:35 am 10:35 Sunny 35 1.5 16 -8.8 47 47 NE 8 13 30.48 1032 10 16 0.00 0.00
10:55 am 10:55 Sunny 36 2 16 -9 44 44 NE 6 9 30.48 1032 10 16 0.00 0.00
11:15 am 11:15 Sunny 38 3.2 16 -9 41 41 NE 7 11 30.48 1032 10 16 0.00 0.00
11:35 am 11:35 Sunny 38 3.1 15 -9.7 39 39 ENE 3 6 30.47 1032 10 16 0.00 0.00
11:55 am 11:55 Sunny 40 4.4 17 -8.6 39 39 NE 6 9 30.46 1032 10 16 0.00 0.00
12:15 pm 12:15 Sunny 40 4.2 16 -9 38 38 NE 9 15 30.45 1031 10 16 0.00 0.00
12:35 pm 12:35 Sunny 41 4.9 17 -8.5 38 38 ENE 9 15 30.44 1031 10 16 0.00 0.00
12:55 pm 12:55 Sunny 42 5.4 17 -8.5 36 36 N 6 9 30.43 1031 10 16 0.00 0.00
1:15 pm 13:15 Sunny 43 6 18 -7.9 36 36 E 5 7 30.41 1030 10 16 0.00 0.00
1:35 pm 13:35 Sunny 43 5.9 18 -7.8 37 37 NNE 7 11 30.41 1030 10 16 0.00 0.00
1:55 pm 13:55 Sunny 43 6 18 -7.7 37 37 NE 6 9 30.40 1029 10 16 0.00 0.00
2:15 pm 14:15 Sunny 44 6.8 19 -7.1 37 37 NE 5 7 30.39 1029 10 16 0.00 0.00
2:35 pm 14:35 Sunny 44 6.7 20 -6.6 38 38 NNE 7 11 30.39 1029 10 16 0.00 0.00
2:55 pm 14:55 Sunny 44 6.6 20 -6.9 38 38 NNE 7 11 30.38 1029 10 16 0.00 0.00
3:15 pm 15:15 Sunny 44 6.9 20 -6.8 37 37 NNE 8 13 30.39 1029 10 16 0.00 0.00
3:35 pm 15:35 Sunny 44 6.9 20 -6.7 38 38 NE 3 6 30.38 1029 10 16 0.00 0.00
3:55 pm 15:55 Sunny 45 7.1 20 -6.5 38 38 NE 5 7 30.37 1028 10 16 0.00 0.00
4:15 pm 16:15 Sunny 45 7.1 21 -6.1 39 39 E 8 13 30.36 1028 10 16 0.00 0.00
4:35 pm 16:35 Sunny 45 7.1 22 -5.6 40 40 ENE 6 9 30.35 1028 10 16 0.00 0.00
4:55 pm 16:55 Sunny 44 6.9 22 -5.3 42 42 ESE 8 13 30.35 1028 10 16 0.00 0.00
5:15 pm 17:15 Sunny 44 6.4 23 -5.1 44 44 E 10 17 30.35 1028 10 16 0.00 0.00
5:35 pm 17:35 Sunny 43 6.1 23 -4.9 46 46 ENE 9 15 30.35 1028 10 16 0.00 0.00
5:55 pm 17:55 Sunny 42 5.4 23 -5 47 47 ENE 8 13 30.36 1028 10 16 0.00 0.00
6:15 pm 18:15 Sunny 40 4.4 23 -4.9 51 51 ENE 9 15 30.37 1029 10 16 0.00 0.00
6:35 pm 18:35 Clear 38 3.4 23 -4.8 55 55 ENE 10 17 30.38 1029 10 16 0.00 0.00
6:55 pm 18:55 Clear 37 2.8 23 -5.1 56 56 ENE 10 17 30.37 1028 10 16 0.00 0.00
7:15 pm 19:15 Clear 36 2.1 23 -5.2 59 59 ENE 12 19 30.36 1028 10 16 0.00 0.00
7:35 pm 19:35 Clear 34 1.1 22 -5.4 62 62 ENE 8 13 30.36 1028 10 16 0.00 0.00
7:55 pm 19:55 Clear 33 0.5 22 -5.4 65 65 NE 10 17 30.37 1029 10 16 0.00 0.00
8:15 pm 20:15 Clear 33 0.3 22 -5.7 64 64 ENE 8 13 30.36 1028 10 16 0.00 0.00
8:35 pm 20:35 Clear 33 0.5 21 -6 62 62 NE 10 17 30.36 1028 10 16 0.00 0.00
8:55 pm 20:55 Clear 32 -0.1 21 -6 65 65 NE 7 11 30.36 1028 10 16 0.00 0.00
9:15 pm 21:15 Clear 32 -0.2 21 -6.1 65 65 NE 5 7 30.36 1028 10 16 0.00 0.00
9:35 pm 21:35 Clear 30 -1 21 -6.3 68 68 NE 6 9 30.35 1028 10 16 0.00 0.00
9:55 pm 21:55 Clear 31 -0.8 21 -6 68 68 NNE 6 9 30.36 1028 10 16 0.00 0.00
10:15 pm 22:15 Clear 30 -1 21 -6 69 69 NE 6 9 30.36 1028 10 16 0.00 0.00
10:35 pm 22:35 Clear 30 -1.3 21 -5.9 71 71 NE 6 9 30.35 1028 10 16 0.00 0.00
10:55 pm 22:55 Clear 29 -1.5 22 -5.8 73 73 NNE 5 7 30.35 1028 10 16 0.00 0.00
11:15 pm 23:15 Clear 29 -1.7 22 -5.6 75 75 NNE 5 7 30.34 1027 10 16 0.00 0.00
11:35 pm 23:35 Clear 29 -1.7 22 -5.6 75 75 NNE 5 7 30.34 1027 10 16 0.00 0.00
11:55 pm 23:55 Clear 29 -1.6 22 -5.5 75 75 NNE 6 9 30.33 1027 10 16 0.00 0.00

Powered by AerisWeather